Wind_Speed
15 15 15 15 14 14 14 15 14 14 14 15 15 15 14 13 13 13 14 14 14 13 13 13 12 12 13 13 14 15 15 16 16 16 16 16 16 16
17 16 16 16 15 16 16 16 15 15 14 15 15 15 15 14 14 14 14 14 14 13 13 13 13 13 14 14 14 14 15 15 16 16 16 16 16 16
17 18 17 18 17 17 17 16 16 16 16 16 16 16 16 16 15 15 14 14 14 13 13 13 14 14 14 14 15 14 14 14 15 16 16 17 17 17
18 18 18 18 18 17 17 17 17 17 17 17 16 16 16 16 16 15 15 15 14 15 14 14 14 15 14 14 14 14 14 14 15 16 17 18 18 19
19 18 18 18 18 18 18 18 18 18 18 18 17 17 17 17 17 17 16 16 16 16 16 16 16 16 16 15 16 15 15 16 16 17 18 19 19 20
20 20 20 19 19 19 19 18 19 19 19 19 18 18 18 18 17 17 17 17 18 18 18 18 18 18 18 17 17 18 18 18 18 19 19 20 20 20
20 20 21 21 21 21 21 20 20 20 20 20 20 19 19 19 19 18 18 18 18 19 20 20 20 20 20 19 20 20 20 20 20 20 21 21 21 21
21 22 22 22 21 21 22 21 21 21 21 21 21 21 20 20 20 20 20 20 20 20 21 21 21 21 22 21 21 22 22 22 22 22 22 22 22 22
23 23 23 23 23 23 23 23 23 23 23 23 23 22 22 22 22 21 22 22 22 22 22 22 22 23 23 23 23 23 22 22 22 22 23 23 23 23
24 24 24 24 24 24 24 24 23 23 24 24 24 24 24 24 24 24 24 24 24 24 25 25 25 25 25 25 24 24 24 24 24 24 24 24 24 24
24 24 24 24 25 25 25 25 25 25 25 25 25 26 26 26 26 27 27 27 27 27 27 27 27 27 26 26 26 26 26 26 26 26 26 25 26 26
25 24 24 25 25 25 26 26 26 26 26 26 27 27 28 28 28 28 28 28 28 28 29 29 29 29 28 28 28 27 27 28 28 28 28 28 28 28
25 26 25 25 26 26 26 27 27 28 28 27 28 28 29 29 29 30 30 30 30 30 30 31 30 30 30 29 29 29 29 29 30 30 29 30 30 30
26 27 28 28 27 28 28 28 29 30 30 30 30 30 30 30 31 31 31 31 31 30 31 32 32 32 32 31 31 31 31 30 31 31 31 32 32 32
27 27 28 29 30 30 30 30 30 31 32 32 32 32 32 32 32 32 33 32 32 32 32 32 33 33 33 33 33 33 33 33 33 33 33 34 34 34
28 29 29 30 31 31 32 32 31 31 32 32 33 33 33 34 34 34 34 34 33 33 33 34 34 34 35 35 36 36 37 37 36 36 36 36 36 36
30 30 30 31 32 32 33 33 33 33 33 33 34 34 34 35 35 35 35 35 35 35 35 35 36 36 37 37 37 38 38 39 39 38 38 38 38 37
32 33 32 32 33 33 33 34 34 34 34 35 35 35 35 35 35 35 35 36 36 37 37 37 38 38 38 38 39 38 38 39 40 40 39 39 38 38
33 33 34 34 34 34 34 34 34 35 35 35 35 35 36 36 36 36 37 37 38 38 39 39 39 40 40 40 40 40 40 40 40 39 39 39 38 38
33 33 34 34 34 34 34 34 35 35 35 36 36 37 37 38 38 38 38 39 39 39 39 39 40 40 41 42 41 40 41 41 40 40 40 39 39 38
32 33 33 34 34 34 34 34 35 35 36 37 37 37 38 39 39 39 39 39 39 39 39 39 40 40 41 41 41 39 39 40 40 40 40 40 39 39
32 33 33 34 34 34 34 34 34 35 35 36 37 37 38 38 39 39 39 39 39 39 39 39 39 39 39 39 39 38 38 38 38 39 38 38 38 38
32 32 33 33 33 34 34 34 34 34 35 36 36 37 37 38 38 39 39 39 40 40 39 39 39 39 39 39 38 37 37 37 37 37 37 37 37 37
Wind_Direction
269 268 268 268 268 268 268 269 269 268 265 265 265 266 266 268 273 276 274 271 275 274 272 272 271 272 272 275 278 281 281 279 278 278 277 278 280 283
268 266 267 267 267 266 268 268 269 268 265 264 265 263 265 269 273 274 273 271 271 269 268 268 270 273 273 276 280 282 282 279 277 277 278 278 281 285
268 267 268 267 267 267 266 267 267 268 269 266 265 265 267 269 271 271 270 271 269 268 268 267 269 271 272 276 280 282 284 281 279 277 278 279 280 283
266 266 266 266 266 266 265 266 265 266 267 267 267 266 267 269 270 269 269 269 269 268 266 267 268 269 271 273 277 281 283 282 279 279 279 280 282 283
264 264 265 266 266 264 264 264 263 264 266 266 268 268 269 270 269 269 269 268 268 266 264 266 268 269 271 273 275 277 278 279 280 280 282 282 283 283
264 264 264 265 265 265 265 266 265 265 265 266 267 269 270 270 270 269 270 270 267 266 266 266 267 268 271 273 275 276 277 278 279 280 281 283 284 284
264 264 263 264 263 263 264 265 265 265 266 266 267 268 268 269 268 268 269 270 271 270 267 267 267 268 270 272 274 275 276 277 279 281 282 283 284 284
263 262 262 262 262 263 265 265 265 265 266 266 267 266 267 266 267 268 268 269 271 271 269 269 269 270 271 273 275 276 277 278 280 281 282 283 283 283
264 264 262 261 260 262 263 264 264 265 266 266 266 266 266 267 268 269 270 271 271 269 270 271 271 271 272 275 276 277 278 280 281 282 283 283 283 283
265 265 265 263 262 263 264 264 265 265 266 266 266 266 267 268 269 270 271 271 271 271 270 271 271 271 272 275 276 276 278 279 280 282 283 284 283 283
265 264 264 264 264 264 265 265 265 265 266 267 268 268 267 267 269 270 271 272 271 271 271 271 271 272 272 273 274 276 277 278 279 280 281 283 284 283
265 265 265 265 266 266 267 267 266 266 267 267 268 268 268 269 270 271 272 272 273 273 272 271 271 270 270 272 273 274 276 277 278 279 280 282 283 283
267 266 267 267 267 267 268 267 267 267 267 267 268 268 268 269 270 270 271 273 274 274 273 271 270 269 270 271 272 273 274 276 277 277 279 281 281 281
269 268 268 267 267 268 269 269 268 267 266 268 268 269 270 270 269 270 271 273 274 274 273 272 271 271 271 271 272 273 274 275 277 277 278 279 279 280
270 270 269 269 269 269 269 269 270 269 268 268 268 269 270 270 270 270 271 272 273 274 274 273 273 272 272 272 272 274 275 275 276 276 277 277 278 278
272 272 272 272 270 269 270 270 269 269 270 270 270 271 272 272 272 272 272 272 272 273 273 273 273 272 272 273 274 273 274 274 274 275 275 276 277 278
274 274 273 272 271 270 271 271 271 270 271 270 270 271 272 273 273 272 273 273 274 275 275 274 274 273 273 273 274 275 275 274 274 273 274 275 276 277
275 275 274 273 272 272 273 272 272 272 272 272 272 272 272 272 273 274 274 274 275 276 276 276 275 274 273 273 274 273 274 274 273 272 272 273 274 275
275 275 274 274 274 274 274 273 273 273 272 272 272 272 272 272 273 274 275 276 277 277 277 278 277 276 275 275 275 274 274 273 273 272 272 272 273 274
275 275 275 275 275 275 275 274 273 272 272 272 272 272 273 273 274 275 275 276 277 277 277 277 277 277 277 277 275 274 273 273 273 272 271 272 273 274
276 276 276 276 276 276 275 276 275 274 273 273 273 273 274 274 274 275 276 276 277 277 278 278 277 277 276 277 275 274 272 272 273 274 274 273 273 273
279 278 277 276 275 275 275 276 276 275 274 274 273 273 274 275 275 275 275 276 277 278 278 278 277 277 278 277 277 275 274 273 274 275 275 274 274 274
278 278 277 277 276 276 276 277 277 276 276 275 275 275 275 275 276 276 275 276 277 277 277 277 276 277 277 277 276 275 274 273 274 275 274 274 274 275
Height
5805 5805 5805 5806 5806 5806 5807 5807 5808 5808 5809 5809 5810 5810 5811 5812 5812 5812 5812 5813 5813 5813 5813 5813 5814 5814 5814 5814 5814 5814 5813 5813 5812 5813 5813 5813 5813 5813
5801 5801 5801 5802 5802 5802 5803 5803 5804 5804 5805 5806 5806 5807 5807 5808 5809 5809 5809 5809 5809 5810 5810 5810 5810 5810 5811 5810 5810 5809 5808 5807 5806 5807 5808 5809 5809 5808
5796 5797 5797 5797 5798 5798 5798 5799 5799 5800 5801 5802 5802 5803 5803 5804 5804 5805 5805 5805 5806 5806 5806 5806 5806 5806 5807 5806 5806 5805 5804 5802 5802 5803 5804 5804 5804 5804
5792 5792 5792 5793 5793 5794 5794 5795 5795 5796 5796 5797 5798 5798 5799 5799 5800 5800 5801 5801 5802 5802 5802 5802 5802 5802 5802 5802 5802 5801 5800 5799 5799 5800 5800 5800 5799 5799
5787 5787 5788 5788 5788 5789 5790 5790 5791 5791 5792 5793 5793 5794 5794 5795 5795 5796 5796 5797 5797 5797 5797 5798 5798 5798 5798 5798 5797 5797 5797 5796 5796 5796 5795 5795 5794 5793
5781 5782 5783 5783 5784 5784 5785 5785 5786 5787 5787 5788 5789 5789 5790 5790 5790 5791 5791 5791 5792 5792 5792 5793 5793 5793 5793 5793 5793 5792 5792 5791 5791 5791 5790 5789 5788 5788
5775 5776 5776 5777 5778 5779 5779 5780 5781 5781 5782 5783 5783 5784 5785 5785 5785 5785 5786 5786 5787 5787 5787 5787 5788 5788 5788 5787 5787 5787 5786 5786 5785 5785 5784 5783 5782 5781
5769 5770 5770 5771 5772 5773 5773 5774 5775 5775 5776 5777 5777 5778 5779 5779 5779 5780 5780 5781 5781 5782 5781 5781 5782 5782 5782 5781 5781 5781 5780 5779 5779 5778 5777 5777 5776 5775
5762 5763 5764 5764 5765 5766 5767 5768 5768 5769 5770 5771 5771 5772 5772 5773 5773 5774 5774 5774 5775 5775 5774 5775 5775 5775 5775 5774 5774 5774 5773 5773 5772 5771 5770 5770 5769 5768
5755 5756 5757 5758 5758 5759 5760 5761 5762 5762 5763 5763 5764 5765 5765 5766 5766 5766 5766 5767 5767 5767 5767 5767 5768 5768 5768 5768 5767 5767 5766 5766 5765 5764 5763 5763 5762 5761
5748 5749 5750 5750 5751 5752 5753 5754 5755 5755 5755 5756 5757 5757 5758 5758 5758 5758 5758 5758 5759 5759 5759 5759 5759 5760 5760 5760 5760 5759 5758 5758 5757 5756 5755 5755 5754 5753
5741 5742 5742 5743 5744 5744 5745 5746 5747 5747 5748 5748 5749 5749 5750 5750 5750 5750 5750 5750 5750 5750 5750 5749 5750 5750 5751 5751 5751 5751 5750 5750 5749 5748 5747 5746 5745 5744
5733 5734 5735 5735 5736 5737 5737 5738 5739 5739 5740 5740 5741 5741 5741 5742 5742 5742 5742 5742 5741 5740 5740 5740 5740 5740 5741 5742 5742 5742 5741 5741 5740 5739 5738 5737 5736 5735
5726 5726 5727 5728 5728 5729 5729 5729 5730 5731 5731 5732 5732 5732 5733 5733 5733 5733 5732 5732 5731 5731 5730 5730 5730 5731 5731 5732 5732 5732 5731 5731 5730 5729 5728 5727 5726 5725
5718 5718 5719 5719 5719 5720 5720 5720 5721 5721 5721 5722 5722 5723 5723 5723 5723 5723 5723 5722 5722 5721 5720 5720 5720 5720 5721 5721 5722 5722 5721 5720 5719 5719 5718 5717 5715 5714
5709 5710 5710 5710 5710 5710 5711 5711 5711 5711 5712 5712 5712 5712 5712 5712 5712 5712 5712 5712 5712 5711 5710 5709 5709 5709 5710 5709 5710 5710 5709 5709 5708 5707 5706 5705 5704 5703
5700 5700 5700 5700 5700 5700 5701 5701 5701 5701 5701 5701 5701 5702 5702 5701 5701 5701 5701 5700 5700 5700 5699 5699 5698 5697 5697 5698 5697 5697 5696 5696 5695 5694 5694 5693 5692 5691
5690 5690 5690 5690 5690 5690 5690 5690 5690 5690 5690 5690 5690 5690 5690 5690 5690 5690 5689 5688 5688 5688 5687 5686 5685 5685 5685 5685 5684 5683 5683 5682 5682 5681 5680 5680 5679 5678
5679 5679 5679 5679 5679 5679 5679 5678 5678 5678 5678 5678 5678 5678 5678 5678 5678 5677 5677 5676 5675 5675 5674 5673 5672 5671 5671 5671 5671 5669 5668 5668 5667 5667 5667 5666 5666 5665
5669 5668 5668 5668 5668 5667 5667 5667 5666 5666 5666 5666 5666 5666 5665 5665 5665 5664 5664 5663 5662 5661 5661 5660 5659 5657 5657 5657 5657 5656 5653 5653 5653 5653 5653 5653 5652 5651
5658 5657 5657 5656 5656 5655 5655 5654 5654 5653 5653 5653 5653 5653 5652 5652 5652 5651 5650 5649 5649 5648 5647 5646 5645 5644 5642 5642 5642 5641 5640 5639 5638 5639 5639 5639 5638 5638
5647 5646 5645 5644 5644 5643 5643 5642 5641 5641 5640 5640 5640 5640 5639 5639 5638 5638 5637 5636 5635 5634 5633 5633 5631 5630 5628 5628 5627 5627 5627 5626 5625 5624 5624 5624 5624 5624
5635 5634 5633 5633 5632 5632 5631 5630 5629 5629 5628 5627 5627 5626 5626 5625 5625 5624 5623 5622 5622 5621 5620 5619 5617 5616 5615 5614 5614 5613 5613 5613 5612 5612 5612 5611 5611 5611